Location: Berg
(47.2344°N, 9.5296°E)
Time: 11:25:55
(UTC+00:00)

AAUSAT CUBESAT 2 - Pass Details

Date: 01 December 2021
Orbit: 571 x 586 km, 97.5° (Epoch: 20 January)

Event Time Altitude Azimuth Distance (km) Brightness Sun altitude
Rises 16:05:31 0° 183° (S) 2,769 ? -5.5°
Reaches altitude 10° 16:07:45 10° 191° (S) 1,875 ? -5.9°
Maximum altitude 16:11:35 41° 262° (W) 846 ? -6.4°
Drops below altitude 10° 16:15:28 10° 333° (NNW) 1,887 ? -7.0°
Sets 16:17:43 0° 341° (NNW) 2,790 ? -7.4°
